• Em Portugal
  • Lista de países
  • Para 7 dias
  • Temperatura da água
  • Mapas de satélite
  • Mapa do tempo
  • Widgets de tempo
  • user-avatar
    Iniciar Sessão

    Previsão horária em Etchmiadzin

    Hoje, 23 Setembro, Domingo

    Tempo Temperatura Precipitação Vento Pressão Humidade
    00:00 +19°C° 0.3 mm 1 m/s 688 mmHg 67%
    01:00 +19°C° 0 mm 1 m/s 688 mmHg 68%
    02:00 +18°C° 0 mm 1 m/s 687 mmHg 69%
    03:00 +16°C° 0 mm 1 m/s 687 mmHg 70%
    04:00 +16°C° 0 mm 1 m/s 687 mmHg 72%
    05:00 +16°C° 0 mm 1 m/s 687 mmHg 73%
    06:00 +15°C° 0 mm 1 m/s 687 mmHg 74%
    07:00 +19°C° 0 mm 1 m/s 687 mmHg 65%
    08:00 +21°C° 0 mm 1 m/s 688 mmHg 56%
    09:00 +23°C° 0 mm 1 m/s 688 mmHg 46%
    10:00 +24°C° 0 mm 1 m/s 688 mmHg 43%
    11:00 +25°C° 0 mm 1 m/s 688 mmHg 40%
    12:00 +26°C° 0 mm 2 m/s 688 mmHg 36%
    13:00 +27°C° 0.1 mm 2 m/s 688 mmHg 35%
    14:00 +27°C° 0.1 mm 2 m/s 687 mmHg 34%
    15:00 +28°C° 0.1 mm 2 m/s 687 mmHg 32%
    16:00 +26°C° 0.3 mm 2 m/s 687 mmHg 37%
    17:00 +24°C° 0.3 mm 2 m/s 687 mmHg 42%
    18:00 +23°C° 0.3 mm 1 m/s 687 mmHg 46%
    19:00 +22°C° 0.3 mm 1 m/s 687 mmHg 50%
    20:00 +21°C° 0.3 mm 1 m/s 687 mmHg 53%
    21:00 +21°C° 0.3 mm 1 m/s 688 mmHg 56%
    22:00 +20°C° 0.1 mm 1 m/s 688 mmHg 59%
    23:00 +20°C° 0.1 mm 1 m/s 688 mmHg 62%

    Amanhã, 24 Setembro, Segunda-feira

    Tempo Temperatura Precipitação Vento Pressão Humidade
    00:00 +19°C° 0.1 mm 1 m/s 688 mmHg 65%
    01:00 +19°C° 0 mm 1 m/s 688 mmHg 68%
    02:00 +18°C° 0 mm 1 m/s 688 mmHg 71%
    03:00 +18°C° 0 mm 1 m/s 688 mmHg 74%
    04:00 +16°C° 0 mm 1 m/s 688 mmHg 75%
    05:00 +16°C° 0 mm 1 m/s 688 mmHg 76%
    06:00 +15°C° 0 mm 1 m/s 688 mmHg 77%
    07:00 +19°C° 0 mm 1 m/s 688 mmHg 67%
    08:00 +21°C° 0 mm 1 m/s 689 mmHg 57%
    09:00 +23°C° 0 mm 1 m/s 689 mmHg 48%
    10:00 +24°C° 0 mm 1 m/s 689 mmHg 43%
    11:00 +26°C° 0 mm 1 m/s 689 mmHg 38%
    12:00 +27°C° 0 mm 1 m/s 689 mmHg 34%
    13:00 +27°C° 0 mm 1 m/s 689 mmHg 32%
    14:00 +28°C° 0 mm 2 m/s 689 mmHg 31%
    15:00 +28°C° 0 mm 2 m/s 688 mmHg 30%
    16:00 +26°C° 0 mm 1 m/s 688 mmHg 34%
    17:00 +24°C° 0 mm 1 m/s 688 mmHg 38%
    18:00 +22°C° 0 mm 1 m/s 687 mmHg 42%
    19:00 +22°C° 0 mm 1 m/s 688 mmHg 45%
    20:00 +21°C° 0 mm 1 m/s 688 mmHg 49%
    21:00 +21°C° 0 mm 1 m/s 688 mmHg 52%
    22:00 +20°C° 0 mm 1 m/s 688 mmHg 54%
    23:00 +20°C° 0 mm 1 m/s 688 mmHg 56%

    Depois de amanhã, 25 Setembro, Terça-feira

    Tempo Temperatura Precipitação Vento Pressão Humidade
    00:00 +19°C° 0 mm 1 m/s 688 mmHg 58%
    01:00 +19°C° 0 mm 1 m/s 688 mmHg 59%
    02:00 +18°C° 0 mm 1 m/s 687 mmHg 59%
    03:00 +18°C° 0 mm 1 m/s 687 mmHg 60%
    04:00 +18°C° 0 mm 1 m/s 687 mmHg 59%
    05:00 +16°C° 0 mm 1 m/s 687 mmHg 58%
    06:00 +16°C° 0 mm 1 m/s 687 mmHg 57%
    07:00 +20°C° 0 mm 1 m/s 687 mmHg 49%
    08:00 +22°C° 0 mm 1 m/s 687 mmHg 41%
    09:00 +25°C° 0 mm 2 m/s 688 mmHg 33%
    10:00 +26°C° 0 mm 2 m/s 688 mmHg 31%
    11:00 +27°C° 0 mm 2 m/s 687 mmHg 28%
    12:00 +29°C° 0 mm 2 m/s 687 mmHg 26%
    13:00 +29°C° 0 mm 2 m/s 687 mmHg 25%
    14:00 +29°C° 0 mm 2 m/s 686 mmHg 25%
    15:00 +30°C° 0 mm 2 m/s 686 mmHg 24%
    16:00 +28°C° 0 mm 1 m/s 685 mmHg 28%
    17:00 +26°C° 0 mm 1 m/s 685 mmHg 32%
    18:00 +24°C° 0 mm 1 m/s 685 mmHg 36%
    19:00 +23°C° 0 mm 1 m/s 685 mmHg 40%
    20:00 +22°C° 0 mm 1 m/s 686 mmHg 44%
    21:00 +21°C° 0 mm 2 m/s 686 mmHg 48%
    22:00 +20°C° 0.1 mm 2 m/s 686 mmHg 53%
    23:00 +20°C° 0.1 mm 2 m/s 686 mmHg 57%

    26 Setembro, Quarta-feira

    Tempo Temperatura Precipitação Vento Pressão Humidade
    00:00 +19°C° 0.1 mm 2 m/s 686 mmHg 61%
    01:00 +19°C° 0.2 mm 2 m/s 686 mmHg 64%
    02:00 +18°C° 0.2 mm 2 m/s 686 mmHg 66%
    03:00 +18°C° 0.2 mm 2 m/s 685 mmHg 69%
    04:00 +17°C° 0.2 mm 2 m/s 685 mmHg 70%
    05:00 +17°C° 0.2 mm 2 m/s 685 mmHg 72%
    06:00 +17°C° 0.2 mm 2 m/s 685 mmHg 73%
    07:00 +19°C° 0 mm 2 m/s 686 mmHg 64%
    08:00 +21°C° 0 mm 2 m/s 686 mmHg 56%
    09:00 +24°C° 0 mm 2 m/s 687 mmHg 47%
    10:00 +25°C° 0.1 mm 2 m/s 686 mmHg 43%
    11:00 +26°C° 0.1 mm 2 m/s 686 mmHg 39%
    12:00 +27°C° 0.1 mm 2 m/s 686 mmHg 35%
    13:00 +27°C° 0.1 mm 2 m/s 686 mmHg 34%
    14:00 +28°C° 0.1 mm 2 m/s 685 mmHg 33%
    15:00 +28°C° 0.1 mm 2 m/s 685 mmHg 33%
    16:00 +26°C° 0.2 mm 2 m/s 685 mmHg 38%
    17:00 +25°C° 0.2 mm 2 m/s 685 mmHg 44%
    18:00 +23°C° 0.2 mm 2 m/s 685 mmHg 49%
    19:00 +21°C° 0.1 mm 2 m/s 685 mmHg 54%
    20:00 +21°C° 0.1 mm 3 m/s 685 mmHg 59%
    21:00 +20°C° 0.1 mm 3 m/s 686 mmHg 64%
    22:00 +19°C° 0 mm 3 m/s 686 mmHg 66%
    23:00 +19°C° 0 mm 2 m/s 686 mmHg 68%

    27 Setembro, Quinta-feira

    Tempo Temperatura Precipitação Vento Pressão Humidade
    00:00 +18°C° 0 mm 2 m/s 686 mmHg 70%
    01:00 +18°C° 0 mm 2 m/s 686 mmHg 71%
    02:00 +17°C° 0 mm 2 m/s 686 mmHg 73%
    03:00 +17°C° 0 mm 2 m/s 686 mmHg 75%
    04:00 +17°C° 0 mm 2 m/s 687 mmHg 76%
    05:00 +17°C° 0 mm 2 m/s 687 mmHg 76%
    06:00 +16°C° 0 mm 2 m/s 687 mmHg 77%
    07:00 +18°C° 0 mm 2 m/s 688 mmHg 69%
    08:00 +20°C° 0 mm 2 m/s 688 mmHg 60%
    09:00 +23°C° 0 mm 2 m/s 689 mmHg 52%
    10:00 +25°C° 0 mm 2 m/s 688 mmHg 47%
    11:00 +26°C° 0 mm 2 m/s 688 mmHg 43%
    12:00 +27°C° 0 mm 3 m/s 688 mmHg 39%
    13:00 +28°C° 0 mm 3 m/s 688 mmHg 37%
    14:00 +28°C° 0 mm 3 m/s 688 mmHg 36%
    15:00 +28°C° 0 mm 3 m/s 687 mmHg 34%
    16:00 +27°C° 0.1 mm 2 m/s 687 mmHg 40%
    17:00 +25°C° 0.1 mm 2 m/s 687 mmHg 45%
    18:00 +24°C° 0.1 mm 2 m/s 687 mmHg 51%
    19:00 +23°C° 0 mm 2 m/s 688 mmHg 55%
    20:00 +21°C° 0 mm 2 m/s 688 mmHg 60%
    21:00 +21°C° 0 mm 3 m/s 688 mmHg 65%
    22:00 +20°C° 0 mm 3 m/s 688 mmHg 66%
    23:00 +20°C° 0 mm 2 m/s 688 mmHg 68%

    28 Setembro, Sexta-feira

    Tempo Temperatura Precipitação Vento Pressão Humidade
    00:00 +19°C° 0 mm 2 m/s 688 mmHg 69%
    01:00 +19°C° 0 mm 2 m/s 688 mmHg 70%
    02:00 +18°C° 0 mm 2 m/s 688 mmHg 70%
    03:00 +18°C° 0 mm 2 m/s 688 mmHg 71%
    04:00 +18°C° 0 mm 2 m/s 688 mmHg 71%
    05:00 +18°C° 0 mm 1 m/s 689 mmHg 72%
    06:00 +18°C° 0 mm 1 m/s 689 mmHg 72%
    07:00 +21°C° 0 mm 1 m/s 689 mmHg 63%
    08:00 +23°C° 0 mm 1 m/s 690 mmHg 53%
    09:00 +25°C° 0 mm 1 m/s 690 mmHg 43%
    10:00 +27°C° 0 mm 2 m/s 690 mmHg 40%
    11:00 +28°C° 0 mm 2 m/s 690 mmHg 36%
    12:00 +29°C° 0 mm 2 m/s 690 mmHg 32%
    13:00 +30°C° 0 mm 3 m/s 689 mmHg 30%
    14:00 +30°C° 0 mm 3 m/s 689 mmHg 29%
    15:00 +30°C° 0 mm 3 m/s 689 mmHg 27%
    16:00 +28°C° 0 mm 2 m/s 689 mmHg 31%
    17:00 +26°C° 0 mm 2 m/s 688 mmHg 36%
    18:00 +24°C° 0 mm 1 m/s 688 mmHg 40%
    19:00 +24°C° 0 mm 1 m/s 689 mmHg 41%
    20:00 +23°C° 0 mm 1 m/s 689 mmHg 42%
    21:00 +23°C° 0 mm 2 m/s 689 mmHg 43%
    22:00 +22°C° 0 mm 1 m/s 689 mmHg 42%
    23:00 +22°C° 0 mm 1 m/s 689 mmHg 42%
    Mostrar mais